Location: Recife
(8.0585°S, 34.8848°W)
Time: 13:16:02
(UTC-03:00)

Vanguard 1 Rocket - Pass Details

Date: 19 April 2026
Orbit: 655 x 4212 km, 34.3° (Epoch: 12 May)

Event Time Altitude Azimuth Distance (km) Brightness Sun altitude
Rises 21:34:06 0° 295° (WNW) 8,031 12.6 -64.0°
Reaches altitude 10° 21:46:01 10° 319° (NW) 7,378 12.1 -66.9°
Maximum altitude 21:56:00 13° 343° (NNW) 7,069 11.9 -69.4°
Drops below altitude 10° 22:05:38 10° 6° (N) 7,021 11.8 -71.7°
Sets 22:16:25 0° 32° (NNE) 7,336 12.0 -74.3°
